Hourly Data Report for October 04, 2015

All times are specified in Local Standard Time (LST). Add 1 hour to adjust for Daylight Saving Time where and when it is observed.

PANGNIRTUNG
NUNAVUT

66°08'36.300" N
65°42'40.500" W
22.60 m
2403049
71826
WXP

Download Data

Hourly Data (October 2015)
Hourly Data Report for October 4, 2015
Temp Definition
°C
Dew Point Temp Definition
°C
Rel Hum Definition
%
Wind Dir Definition
10's deg

Wind Spd Definition
km/h
Visibility Definition
km
Stn Press Definition
kPa
Hmdx Definition


Wind Chill Definition


Weather Definition


TIME
00:00 -0.9 -1.0 99 7 19   100.61   -6 LegendNANA
01:00 -1.1 -1.1 100 8 21   100.49   -7 LegendNANA
02:00 -1.0 -1.2 99 8 24   100.41   -7 LegendNANA
03:00 -0.4 -1.6 91 9 23   100.37   -6 LegendNANA
04:00 0.0 -2.5 83 9 18   100.43   -5 LegendNANA
05:00 0.0 -3.2 79 9 22   100.45   -6 LegendNANA
06:00 0.5 -4.8 67 10 16   100.52     LegendNANA
07:00 0.3 -7.1 58 12 10   100.62     LegendNANA
08:00 -0.9 -5.3 72 24 13   100.76   -5 LegendNANA
09:00 -1.1 -3.3 85 21 6   100.89   -3 LegendNANA
10:00 -2.1 -4.7 82   0   100.97     LegendNANA
11:00 -2.0 -4.8 81 12 4   101.02   -3 LegendNANA
12:00 -1.6 -4.6 80 18 3   101.05   -3 LegendNANA
13:00 -1.7 -4.6 81 17 4   101.09   -3 LegendNANA
14:00 -1.1 -5.0 75 20 3   101.13   -2 LegendNANA
15:00 -1.9 -5.7 75 16 2   101.15   -3 LegendNANA
16:00 -2.2 -6.2 74 15 6   101.16   -5 LegendNANA
17:00 -3.0 -5.2 85 24 5   101.18   -5 LegendNANA
18:00 -3.3 -4.3 93 23 6   101.20   -6 LegendNANA
19:00 -2.4 -3.4 93   0   101.20     LegendNANA
20:00 -2.2 -3.1 94 22 5   101.17   -4 LegendNANA
21:00 -2.6 -3.3 95 23 4   101.11   -4 LegendNANA
22:00 -2.8 -3.1 98 7 2   101.07   -4 LegendNANA
23:00 -2.6 -2.9 97 25 11   101.05   -7 LegendNANA

Notes on Data Quality.

Legend

  • E = Estimated
  • M = Missing
  • NA = Not Available
  • ‡ = Partner data that is not subject to review by the National Climate Archives
Date modified: